Location: Bratsk-Energetik
(56.3300°N, 101.7600°E)
Time: 12:15:10
(UTC+08:00)

ISS - Pass Details

Date: 22 July 2018
Orbit: 402 x 408 km, 51.6° (Epoch: 21 July)

Event Time Altitude Azimuth Distance (km) Brightness Sun altitude
Rises 03:31:10 0° 271° (W) 2,331 -0.3 -8.4°
Reaches altitude 10° 03:33:57 10° 245° (WSW) 1,469 -1.5 -8.2°
Maximum altitude 03:35:47 14° 211° (SSW) 1,238 -2.1 -8.1°
Drops below altitude 10° 03:37:38 10° 177° (S) 1,466 -1.5 -8.0°
Sets 03:40:24 0° 152° (SSE) 2,323 -0.3 -7.8°
